Shreveport, LA

3:51 AM CDT on October 24, 2017 (GMT -0500)
Shreveport Regional

Weather History for KSHV - May, 2014

Change the Weather History Date:

Sunday, May 18, 2014

  Actual Average Record
Temperature  
Mean Temperature 71 °F 74 °F  
Max Temperature 84 °F 84 °F 94 °F (1883)
Min Temperature 58 °F 63 °F 48 °F (1976)
Degree Days  
Heating Degree Days 0 0  
Month to date heating degree days 24 5  
Since 1 July heating degree days 2567 2224  
Cooling Degree Days 6 9  
Month to date cooling degree days 105 126  
Year to date cooling degree days 226 261  
Growing Degree Days 20 (Base 50)    
Moisture  
Dew Point 60 °F    
Average Humidity 67    
Maximum Humidity 93    
Minimum Humidity 40    
Precipitation  
Precipitation 0.00 in 0.16 in 4.18 in (2015)
Month to date precipitation 4.84 2.89  
Year to date precipitation 16.39 20.17  
Snow  
Snow 0.00 in - - ()
Month to date snowfall 0.0  
Since 1 July snowfall 1.0  
Snow Depth 0.00 in    
Sea Level Pressure  
Sea Level Pressure 30.09 in    
Wind  
Wind Speed 5 mph (South)    
Max Wind Speed 13 mph    
Max Gust Speed 17 mph    
Visibility 10 miles    
Events      
T = Trace of Precipitation, MM = Missing Value Source: NWS Daily Summary

Daily Weather History Graph

Daily Weather History Graph

Search for Another Location

Airport or City:

Trip Planner

Search our weather history database for the weather conditions in past years. The results will help you decide how hot, cold, wet, or windy it might be!

Date:

Astronomy

May. 18, 2014 Rise Set
Actual Time 6:15 AM CDT 8:08 PM CDT
Civil Twilight 5:47 AM CDT 8:36 PM CDT
Nautical Twilight 5:15 AM CDT 9:09 PM CDT
Astronomical Twilight 4:40 AM CDT 9:44 PM CDT
Moon No Moon Rise 10:02 AM CDT (5/18)
Length of Visible Light 14h 48m
Length of Day
13h 53m
Waning Gibbous, 81% of the Moon is Illuminated
May 18
Waning Gibbous
May 21
Last Quarter
May 28
New
Jun 5
First Quarter
Jun 12
Full

Hourly Weather History & Observations

Time (CDT) Temp. Heat Index Dew Point Humidity Pressure Visibility Wind Dir Wind Speed Gust Speed Precip Events Conditions
12:56 AM 68.0 °F - 59.0 °F 73% 30.07 in 10.0 mi SSW 6.9 mph - N/A   Partly Cloudy
1:56 AM 66.0 °F - 59.0 °F 78% 30.08 in 10.0 mi South 4.6 mph - N/A   Scattered Clouds
2:56 AM 66.0 °F - 60.1 °F 81% 30.08 in 10.0 mi SSW 3.5 mph - N/A   Clear
3:56 AM 64.0 °F - 60.1 °F 87% 30.09 in 10.0 mi Calm Calm - N/A   Clear
4:56 AM 60.1 °F - 57.9 °F 93% 30.10 in 9.0 mi Calm Calm - N/A   Clear
5:56 AM 59.0 °F - 57.0 °F 93% 30.11 in 9.0 mi Calm Calm - N/A   Clear
6:56 AM 60.1 °F - 57.9 °F 93% 30.12 in 10.0 mi Calm Calm - N/A   Clear
7:56 AM 66.0 °F - 63.0 °F 90% 30.14 in 9.0 mi Calm Calm - N/A   Partly Cloudy
8:56 AM 71.1 °F - 64.0 °F 78% 30.14 in 10.0 mi SSW 4.6 mph - N/A   Partly Cloudy
9:22 AM 71.6 °F - 64.4 °F 78% 30.15 in 10.0 mi Variable 3.5 mph - N/A   Mostly Cloudy
9:56 AM 75.0 °F - 63.0 °F 66% 30.14 in 10.0 mi Variable 6.9 mph - N/A   Mostly Cloudy
10:03 AM 73.4 °F - 60.8 °F 65% 30.15 in 10.0 mi SW 10.4 mph - N/A   Mostly Cloudy
10:56 AM 77.0 °F - 61.0 °F 58% 30.14 in 10.0 mi WSW 9.2 mph - N/A   Mostly Cloudy
11:56 AM 80.1 °F 80.9 °F 60.1 °F 50% 30.13 in 10.0 mi South 11.5 mph - N/A   Mostly Cloudy
12:56 PM 81.0 °F 81.6 °F 60.1 °F 49% 30.11 in 10.0 mi WSW 4.6 mph - N/A   Mostly Cloudy
1:56 PM 80.1 °F 80.6 °F 57.9 °F 47% 30.09 in 10.0 mi Calm Calm - N/A   Mostly Cloudy
2:56 PM 82.0 °F 82.0 °F 57.9 °F 44% 30.07 in 10.0 mi South 6.9 mph - N/A   Mostly Cloudy
3:56 PM 84.0 °F 83.5 °F 57.9 °F 41% 30.06 in 10.0 mi South 9.2 mph - N/A   Mostly Cloudy
4:56 PM 82.9 °F 82.6 °F 57.9 °F 42% 30.05 in 10.0 mi South 10.4 mph 16.1 mph N/A   Scattered Clouds
5:56 PM 82.9 °F 82.4 °F 57.0 °F 41% 30.05 in 10.0 mi South 6.9 mph - N/A   Partly Cloudy
6:56 PM 81.0 °F 81.1 °F 57.9 °F 45% 30.04 in 10.0 mi South 6.9 mph - N/A   Partly Cloudy
7:56 PM 75.9 °F - 61.0 °F 60% 30.04 in 10.0 mi SE 4.6 mph - N/A   Partly Cloudy
8:56 PM 72.0 °F - 62.1 °F 71% 30.04 in 10.0 mi ESE 3.5 mph - N/A   Scattered Clouds
9:56 PM 71.1 °F - 62.1 °F 73% 30.05 in 10.0 mi SE 4.6 mph - N/A   Scattered Clouds
10:56 PM 71.1 °F - 62.1 °F 73% 30.06 in 10.0 mi SE 8.1 mph - N/A   Scattered Clouds
11:56 PM 70.0 °F - 62.1 °F 76% 30.06 in 10.0 mi South 8.1 mph - N/A   Partly Cloudy